Regional Weather Roundup
Issued by NWS

Home | Current Version | Previous Version | Text Only | Print | Product List | Glossary On
Versions: 1 2 3 4 5 6 7 8 9 10 11 12 13 14 15 16 17 18 19 20 21 22 23 24 25 26 27 28 29 30 31 32 33 34 35 36 37 38 39 40 41 42 43 44 45 46 47 48 49 50
000
ASUS43 KIND 062109
RWRIN

WEATHER ROUNDUP FOR INDIANA
NATIONAL WEATHER SERVICE INDIANAPOLIS IN
400 PM EST SAT FEB 06 2016

NOTE: "FAIR" INDICATES FEW OR NO CLOUDS BELOW 12,000 FEET WITH NO
SIGNIFICANT WEATHER AND/OR OBSTRUCTIONS TO VISIBILITY.

* - STATION DOES NOT REPORT WEATHER SUCH AS PRECIPITATION OR FOG.

+ - STATION NOT QUALITY CONTROLLED BY THE NATIONAL WEATHER SERVICE.
    USE DATA WITH CAUTION...ESPECIALLY DEWPOINT AND RELATIVE
    HUMIDITY OBSERVATIONS.

INZ001>003-010>013-019-020-062200-
NORTHWEST INDIANA

CITY           SKY/WX    TMP DP  RH WIND       PRES   REMARKS
GARY /AIRPORT/ PTSUNNY   41  25  52 SW17      30.19S
LA PORTE +     MOSUNNY   41  29  62 SW14G21   30.19S
MICHIGAN CITY+ MOSUNNY   41  30  65 SW10      30.19S
MONTICELLO +   SUNNY     41  24  50 SW10      30.20F
RENSSELAER +   SUNNY     41  28  60 SW10      30.20S
VALPARAISO     MOSUNNY   41  27  57 SW15      30.19S

$$

LMZ046-743>745-062200-
SOUTHERN LAKE MICHIGAN

STATION/POSITION TIME  TEMP    WIND        PRES    WAVE
                       AIR SEA DIR/SP/G            HT
                 (UTC) (F)     (DEG/KT/KT) (MB)    (FT)
BURNS HARBOR     2000   38     230/ 12/ 20 1022.7F
MICHIGAN CITY    2000   36     230/ 11/ 13   N/A

$$

INZ004-005-014>016-021>024-062200-
NORTH CENTRAL INDIANA

CITY           SKY/WX    TMP DP  RH WIND       PRES   REMARKS
ELKHART          N/A     37  25  60 MISG      30.19S
GOSHEN         MOSUNNY   37  25  61 SW14      30.19S
LOGANSPORT +   SUNNY     41  23  48 SW10      30.21F
PERU/GRISSOM   SUNNY     41  26  55 SW13      30.19F
ROCHESTER +    SUNNY     41  23  48 SW9       30.20S
SOUTH BEND     PTSUNNY   38  26  62 W16       30.19S
WARSAW +       SUNNY     37  25  60 SW10G16   30.19S

$$

INZ006>009-017-018-025>027-062200-
NORTHEAST INDIANA

CITY           SKY/WX    TMP DP  RH WIND       PRES   REMARKS
AUBURN +       SUNNY     37  21  52 SW8       30.20S
FORT WAYNE     MOSUNNY   39  24  55 SW14      30.21F
HUNTINGTON +   SUNNY     39  20  46 SW9       30.20S

$$

INZ028-029-035-036-043>045-051>053-062200-
WEST CENTRAL INDIANA

CITY           SKY/WX    TMP DP  RH WIND       PRES   REMARKS
GREENCASTLE +  SUNNY     45  18  33 SW6       30.23S
LAFAYETTE      SUNNY     42  26  53 SW12      30.21F
TERRE HAUTE    SUNNY     48  27  44 SW6       30.23F

$$

INZ030>032-037>040-046>048-054>057-064-065-062200-
CENTRAL INDIANA

CITY           SKY/WX    TMP DP  RH WIND       PRES   REMARKS
ANDERSON       SUNNY     41  23  48 SW9       30.23F
COLUMBUS       SUNNY     46  27  46 W12       30.24F
FISHERS *+     SUNNY     43  30  61 W9        30.23S
FRANKFORT +    SUNNY     43  19  37 S9        30.23S
GREENWOOD *+   SUNNY     46  27  46 W8        30.24S
INDIANAPOLIS   SUNNY     45  23  42 SW8       30.22F
-EAGLE CREEK   SUNNY     44  24  45 VRB5      30.22F
KOKOMO *+        N/A     43  27  52 SW14      30.21F
MARION +       SUNNY     40  17  40 SW13      30.22S
MT COMFORT *+  SUNNY     43  25  49 SW7       30.24S
SHELBYVILLE    SUNNY     45  26  47 SW6       30.23F
ZIONSVILLE +   SUNNY     42  27  55 SW12      30.23S

$$

INZ033-034-041-042-049-050-058-059-062200-
EAST CENTRAL INDIANA

CITY           SKY/WX    TMP DP  RH WIND       PRES   REMARKS
MUNCIE         SUNNY     42  23  46 W12       30.22F

$$

INZ060-061-067>069-081>083-085>088-062200-
SOUTHWEST INDIANA

CITY           SKY/WX    TMP DP  RH WIND       PRES   REMARKS
EVANSVILLE     SUNNY     55  25  31 W6        30.27S
HUNTINGBURG *+ SUNNY     52  30  43 S7        30.26F
WASHINGTON +   SUNNY     50  26  38 W12       30.24F

$$

INZ062-063-066-070>080-084-089>092-062200-
SOUTH CENTRAL AND SOUTHEAST INDIANA

CITY           SKY/WX    TMP DP  RH WIND       PRES   REMARKS
BEDFORD +      SUNNY     50  27  40 SW6       30.24F
BLOOMINGTON    SUNNY     49  24  37 W7        30.23F
MADISON *+     SUNNY     46  23  39 W10       30.27S
NORTH VERNON + SUNNY     46  25  42 CALM      30.25F
SEYMOUR +      SUNNY     50  28  43 W5        30.25F

$$




USA.gov is the U.S. government's official web portal to all federal, state and local government web resources and services.